Location: Unspecified
(43.4680°N, 87.1740°E)
Time: 21:19:54
(UTC+00:00)

COSMOS 2406 - Pass Details

Date: 17 April 2021
Orbit: 845 x 862 km, 71.0° (Epoch: 12 May)

Event Time Altitude Azimuth Distance (km) Brightness Sun altitude
Rises 19:28:24 0° 341° (NNW) 3,419 7.0 -33.0°
Reaches altitude 10° 19:31:04 10° 350° (N) 2,478 6.2 -32.8°
Maximum altitude 19:36:17 36° 56° (NE) 1,312 4.5 -32.4°
Enters shadow 19:38:08 29° 94° (E) 1,508 4.6 -32.2°
